Preview of NWS' New Version of Forecast
This preview is not operational and should not be used for support decisions.

Regional Weather Roundup (RWR)

Issued by National Weather Service (NWS)

                            
000
ASUS45 KCYS 190410
RWRWY 

WYOMING REGIONAL WEATHER ROUNDUP
NATIONAL WEATHER SERVICE CHEYENNE WY
1000 PM MDT THU APR 18 2019

NOTE:  "FAIR" INDICATES FEW OR NO CLOUDS BELOW 12,000 FEET
WITH NO SIGNIFICANT WEATHER AND/OR OBSTRUCTIONS TO VISIBILITY.

WYZ001-190500-
YELLOWSTONE NATIONAL PARK
  
CITY           SKY/WX    TMP DP  RH WIND       PRES   REMARKS
LK YELLOWSTONE   N/A     30  24  78 CALM      30.34R                  
W YELLOWSTONE  NOT AVBL                                               

$$
WYZ002>013-054>058-071-098>099-190500-
NORTHERN WYOMING
  
CITY           SKY/WX    TMP DP  RH WIND       PRES   REMARKS
JACKSON        FAIR      43  29  57 CALM      30.31R                  
CODY           FAIR      58  30  34 W15G26    30.16R                  
GREYBULL       CLOUDY    60  29  30 SW7       30.10R                  
WORLAND        FAIR      49  30  48 S13       30.12R                  
SHERIDAN       FAIR      42  33  70 S8        30.11S                  
BUFFALO        FAIR      45  31  58 W6        30.15S                  
GILLETTE       FAIR      39  31  72 S10       30.14S WCI  32          
HULETT         FAIR      39  30  70 S9        30.14  WCI  33          
NEWCASTLE      FAIR      41  23  48 NE3       30.17                   

$$
WYZ014>020-022>026-101>103-190500-
CENTRAL WYOMING
  
CITY           SKY/WX    TMP DP  RH WIND       PRES   REMARKS
BIG PINEY      FAIR      38  26  62 N10       30.33R WCI  31          
PINEDALE       FAIR      36  30  80 N7        30.33  WCI  30          
DUBOIS         FAIR      41  27  56 NW7       30.29                   
LANDER         FAIR      51  30  44 SW13      30.18R                  
RIVERTON       FAIR      51  28  41 NW10      30.19R                  
CASPER         FAIR      36  29  75 NE5       30.18S WCI  32          
DOUGLAS        FAIR      40  29  64 S3        30.20R                  

$$
WYZ021-027>030-104>119-190500-
SOUTHERN WYOMING
  
CITY           SKY/WX    TMP DP  RH WIND       PRES   REMARKS
EVANSTON       FAIR      41  29  62 SW12      30.36R                  
KEMMERER       FAIR      41  28  60 CALM      30.35                   
ROCK SPRINGS   FAIR      47  24  40 W15       30.30R                  
DIXON          FAIR      45  30  54 E6        30.29R                  
RAWLINS        FAIR      49  24  37 CALM      30.25R                  
SARATOGA       FAIR      45  28  53 S7        30.26R                  
LARAMIE        FAIR      36  23  59 NW6       30.26R WCI  31          
CHEYENNE       FAIR      42  26  53 N7        30.23R                  
TORRINGTON     FAIR      43  25  49 N8        30.18R                  
PINE BLUFFS    FAIR      34  27  75 NW9       30.21S WCI  26          

$$